[[{"header":{"parameterUnit":"m.s-1","parameterCategory":1,"la1":30.2991,"la2":30.254,"lo1":-89.0895,"lo2":-89.0444,"dy":0.0017,"dx":0.0017,"nx":28,"ny":28,"refTime":"2025-03-10T09:00:00:Z","depth":0,"parameterNumber":2,"parameterNumberName":"U-component_of_WINDS"},"data":[0,0,0,0,0,0,0,0,0,0,0,0,0,0,0,0,0,0,0,0,0,0,0,0,0,0,0,0,0,0,0,0,0,0,0,0,0,0,0,0,0,0,0,0,0,0,0,0,0,0,0,0,0,0,0,0,0,0,1.5229,1.523,0,1.5249,1.5249,1.5249,1.5235,1.5234,1.5233,1.5233,1.5255,1.5256,1.5257,0,0,0,0,0,0,0,0,0,0,0,0,0,1.5183,1.5184,1.5229,1.523,1.523,1.5249,1.5249,1.525,1.5235,1.5234,1.5233,1.5232,1.5255,1.5256,1.5257,0,0,0,0,0,0,0,0,0,0,0,0,0,1.5203,1.5184,1.5229,1.5225,1.5224,1.5249,1.5249,1.525,1.5235,1.5234,1.5233,1.5232,1.5254,1.5256,1.5258,1.5288,0,0,1.5263,1.5264,0,0,0,0,0,0,0,0,1.5202,1.5205,1.5225,1.5225,1.5225,1.5238,1.5241,1.5263,1.5235,1.5231,1.5233,1.5232,1.525,1.5252,1.5258,1.5289,1.529,1.5263,1.5264,1.5265,1.5266,0,0,0,0,0,0,0,1.5201,1.5204,1.5237,1.5225,1.5225,1.5223,1.5225,1.5245,1.5246,1.5231,1.523,1.5233,1.525,1.5257,1.5259,1.529,1.5263,1.5265,1.5266,1.5267,1.5352,1.5353,0,0,0,0,0,0,1.5199,1.5203,1.5237,1.5238,1.5211,1.5225,1.5227,1.5235,1.5246,1.5246,1.5234,1.5232,1.5254,1.5257,1.5259,1.5298,1.5265,1.5267,1.5268,1.535,1.5352,1.5353,0,0,0,0,0,0,1.5198,1.5202,1.5236,1.522,1.5224,1.5227,1.5236,1.5236,1.5242,1.5247,1.5248,1.524,1.5253,1.5257,1.5282,1.5299,1.5268,1.5269,1.5349,1.5351,1.5353,1.5375,0,0,0,0,0,0,1.5197,1.5202,1.5212,1.522,1.5225,1.5257,1.5237,1.5237,1.5245,1.5243,1.5253,1.5254,1.5253,1.5279,1.5284,1.5301,1.5271,1.5348,1.535,1.5352,1.5373,1.5378,1.5381,0,0,0,0,0,1.5195,1.5218,1.5213,1.5217,1.5238,1.5257,1.526,1.5258,1.5247,1.5258,1.5262,1.5254,1.5296,1.5282,1.5287,1.5305,1.5346,1.5349,1.5352,1.5371,1.5377,1.5381,0,0,0,0,0,0,1.5212,1.5219,1.5213,1.5239,1.5248,1.5255,1.5269,1.5263,1.5276,1.5274,1.5271,1.5274,1.53,1.5305,1.5289,1.5337,1.532,1.5324,1.5333,1.5338,1.5342,1.5341,1.5272,0,0,0,0,0,1.5218,1.5232,1.5238,1.526,1.5265,1.5266,1.5275,1.5272,1.5282,1.5286,1.5291,1.5301,1.5318,1.5328,1.5343,1.5374,1.5377,1.5389,1.5393,1.5396,1.54,1.542,1.5426,1.5362,1.5362,1.5362,0,0,1.5232,1.5237,1.5246,1.5264,1.527,1.5287,1.5269,1.5287,1.53,1.5288,1.5313,1.5318,1.5329,1.5358,1.5371,1.5363,1.5419,1.54,1.5402,1.5404,1.5423,1.543,1.5435,1.5364,1.5363,1.5363,0,0,1.5266,1.527,1.529,1.5298,1.5308,1.531,1.5315,1.5323,1.5326,1.5351,1.5343,1.5359,1.5386,1.5396,1.5404,1.5445,1.5439,1.545,1.5472,1.5492,1.5497,1.5502,1.5519,1.5525,1.5453,1.5453,1.5453,0,1.5281,1.5305,1.5301,1.532,1.5329,1.532,1.5342,1.535,1.5365,1.5372,1.5362,1.5398,1.5405,1.5438,1.5448,1.5454,1.5462,1.5449,1.5496,1.5501,1.5505,1.5522,1.5528,1.5455,1.5455,1.5454,1.5454,0,1.5325,1.5342,1.5357,1.5372,1.5383,1.5403,1.5405,1.5416,1.5414,1.5417,1.5444,1.5452,1.547,1.5478,1.5475,1.5511,1.5506,1.5496,1.5479,1.5513,1.5528,1.5534,1.5457,1.5456,1.5456,1.5455,0,0,1.5368,1.5383,1.5389,1.5397,1.5409,1.5423,1.5444,1.5462,1.5473,1.5484,1.5504,1.5528,1.552,1.553,1.5529,1.5546,1.5581,1.5535,1.5535,1.5545,1.5625,1.5634,1.5641,1.5577,1.5579,1.5579,1.5625,0,1.5404,1.544,1.5439,1.5473,1.549,1.5483,1.5502,1.5513,1.5517,1.5534,1.5539,1.5557,1.5544,1.5551,1.5567,1.5573,1.5598,1.557,1.5598,1.5599,1.5596,1.5648,1.5656,1.5699,1.5631,1.5632,1.5633,0,1.545,1.5464,1.55,1.5513,1.552,1.5536,1.5554,1.5569,1.5583,1.5585,1.5597,1.5594,1.5618,1.56,1.5635,1.5617,1.5628,1.5633,1.5635,1.5638,1.5618,1.5655,1.5712,1.5719,1.5642,1.5641,1.564,0,1.5481,1.5508,1.5534,1.5541,1.5556,1.5568,1.5575,1.5588,1.5599,1.5615,1.5623,1.5642,1.5652,1.5668,1.5671,1.5657,1.5707,1.5689,1.5712,1.5712,1.5723,1.5723,1.5785,1.5728,1.5728,1.5728,1.5728,0,1.5522,1.5544,1.5548,1.5564,1.5591,1.5591,1.5618,1.5624,1.5635,1.5654,1.5649,1.5668,1.567,1.5689,1.5692,1.5723,1.5727,1.5731,1.5732,1.5732,1.5732,1.574,1.5738,1.5729,1.5729,1.5729,1.5728,0,1.556,1.5563,1.5592,1.5604,1.5608,1.5627,1.5639,1.5655,1.566,1.5684,1.569,1.5698,1.5721,1.5725,1.5752,1.5755,1.5791,1.5788,1.5787,1.5787,1.5811,1.5809,1.5881,1.5892,1.5827,1.5827,1.5828,0,1.5587,1.5604,1.5619,1.5631,1.5639,1.5658,1.5671,1.5672,1.5685,1.5704,1.5719,1.5742,1.576,1.5798,1.5807,1.5828,1.5827,1.5851,1.583,1.5831,1.583,1.583,1.5833,1.5855,1.5856,1.5856,1.5857,0,1.5634,1.5636,1.5653,1.5672,1.5687,1.5702,1.5716,1.5726,1.573,1.5746,1.577,1.5784,1.5813,1.5836,1.5859,1.5868,1.5864,1.5863,1.587,1.5872,1.5871,1.5874,1.58,1.5862,1.5861,1.5861,1.5861,1.586,1.5669,1.5685,1.5699,1.572,1.5731,1.5745,1.5762,1.577,1.5789,1.5812,1.5812,1.5839,1.5856,1.5885,1.5896,1.5918,1.5911,1.592,1.5923,1.5926,1.5929,1.5867,1.5922,1.5922,1.5922,1.5922,1.5922,0,1.5718,1.5727,1.5746,1.5767,1.5784,1.5778,1.5795,1.581,1.5833,1.5848,1.5866,1.5896,1.5919,1.5931,1.5955,1.5971,1.597,1.5978,1.5977,1.598,1.5933,1.5926,1.5978,1.5978,1.5978,1.5978,1.5978,1.5978,1.5746,1.5774,1.5778,1.5813,1.5823,1.5848,1.5859,1.5873,1.5885,1.5918,1.5937,1.5945,1.596,1.5986,1.6008,1.6011,1.6021,1.603,1.6033,1.5989,1.5983,1.5978,1.5971,1.6032,1.6032,1.6078,1.6079,1.6079]},{"header":{"parameterUnit":"m.s-1","parameterCategory":1,"la1":30.2991,"la2":30.254,"lo1":-89.0895,"lo2":-89.0444,"dy":0.0017,"dx":0.0017,"nx":28,"ny":28,"refTime":"2025-03-10T09:00:00:Z","depth":0,"parameterNumber":3,"parameterNumberName":"V-component_of_WINDS"},"data":[0,0,0,0,0,0,0,0,0,0,0,0,0,0,0,0,0,0,0,0,0,0,0,0,0,0,0,0,0,0,0,0,0,0,0,0,0,0,0,0,0,0,0,0,0,0,0,0,0,0,0,0,0,0,0,0,0,0,-2.1593,-2.1593,0,-2.1525,-2.1524,-2.1524,-2.1516,-2.1517,-2.1517,-2.1518,-2.1444,-2.1442,-2.1439,0,0,0,0,0,0,0,0,0,0,0,0,0,-2.1712,-2.171,-2.1593,-2.1593,-2.1592,-2.1525,-2.1524,-2.1523,-2.1516,-2.1517,-2.1518,-2.1518,-2.1445,-2.1442,-2.1439,0,0,0,0,0,0,0,0,0,0,0,0,0,-2.1654,-2.1709,-2.1594,-2.158,-2.1578,-2.1526,-2.1524,-2.1523,-2.1516,-2.1517,-2.1518,-2.1519,-2.1446,-2.1442,-2.1438,-2.1393,0,0,-2.1426,-2.1425,0,0,0,0,0,0,0,0,-2.1657,-2.1649,-2.1583,-2.1581,-2.1579,-2.153,-2.1539,-2.1479,-2.1516,-2.1539,-2.1518,-2.1519,-2.1472,-2.1466,-2.1451,-2.139,-2.1387,-2.1426,-2.1424,-2.1422,-2.1421,0,0,0,0,0,0,0,-2.1661,-2.1652,-2.1566,-2.1582,-2.1579,-2.1576,-2.1569,-2.1528,-2.15,-2.1537,-2.1537,-2.1529,-2.1471,-2.1454,-2.1449,-2.1385,-2.1426,-2.1423,-2.142,-2.1419,-2.1281,-2.1279,0,0,0,0,0,0,-2.1668,-2.1656,-2.1568,-2.1564,-2.1621,-2.1573,-2.1565,-2.1545,-2.1501,-2.1495,-2.1528,-2.1529,-2.1461,-2.1453,-2.1446,-2.1388,-2.1422,-2.1418,-2.1416,-2.1282,-2.128,-2.1279,0,0,0,0,0,0,-2.1671,-2.1661,-2.1571,-2.161,-2.1598,-2.157,-2.1547,-2.1543,-2.1526,-2.1494,-2.1488,-2.1517,-2.1461,-2.1452,-2.1406,-2.1385,-2.1417,-2.1413,-2.1283,-2.1281,-2.128,-2.1272,0,0,0,0,0,0,-2.1674,-2.1662,-2.1645,-2.1609,-2.1596,-2.1534,-2.1546,-2.1541,-2.152,-2.152,-2.1482,-2.1476,-2.1461,-2.1412,-2.1402,-2.138,-2.141,-2.1285,-2.1283,-2.128,-2.1274,-2.127,-2.1267,0,0,0,0,0,-2.1678,-2.1646,-2.1645,-2.1634,-2.1576,-2.1533,-2.1525,-2.1509,-2.1519,-2.1501,-2.148,-2.1477,-2.139,-2.1407,-2.1396,-2.1373,-2.1286,-2.1283,-2.128,-2.1276,-2.1271,-2.1267,0,0,0,0,0,0,-2.1679,-2.1641,-2.1639,-2.1594,-2.1567,-2.1532,-2.1509,-2.1505,-2.1474,-2.1475,-2.1456,-2.1447,-2.1401,-2.1383,-2.1403,-2.1325,-2.1339,-2.1333,-2.1339,-2.1334,-2.1331,-2.1335,-2.1407,0,0,0,0,0,-2.1674,-2.1644,-2.1612,-2.1575,-2.1562,-2.1538,-2.1519,-2.1509,-2.1479,-2.1467,-2.1443,-2.1413,-2.1378,-2.1355,-2.1322,-2.1272,-2.1262,-2.125,-2.1247,-2.1244,-2.1239,-2.1208,-2.1202,-2.1269,-2.1269,-2.1269,0,0,-2.1663,-2.1639,-2.1621,-2.1575,-2.1552,-2.1519,-2.1528,-2.1494,-2.1468,-2.1461,-2.1416,-2.1397,-2.1362,-2.1314,-2.1291,-2.1297,-2.1218,-2.124,-2.1238,-2.1235,-2.1205,-2.1198,-2.1193,-2.1267,-2.1268,-2.1268,0,0,-2.1627,-2.1606,-2.1572,-2.155,-2.1516,-2.15,-2.1492,-2.1456,-2.1444,-2.1399,-2.1392,-2.1361,-2.1302,-2.1277,-2.1256,-2.1208,-2.1203,-2.1197,-2.1178,-2.1148,-2.1143,-2.1138,-2.1118,-2.1111,-2.1193,-2.1193,-2.1193,0,-2.1617,-2.1569,-2.1555,-2.152,-2.1499,-2.1492,-2.1456,-2.1434,-2.1391,-2.1375,-2.1383,-2.1307,-2.1283,-2.1227,-2.1215,-2.12,-2.1188,-2.1201,-2.1145,-2.114,-2.1135,-2.1115,-2.1108,-2.1192,-2.1192,-2.1192,-2.1192,0,-2.1557,-2.1524,-2.15,-2.1459,-2.1435,-2.14,-2.1378,-2.1355,-2.1348,-2.133,-2.1282,-2.1254,-2.1213,-2.1199,-2.1191,-2.1141,-2.1145,-2.1149,-2.1162,-2.1128,-2.1109,-2.1102,-2.1191,-2.1191,-2.1192,-2.1192,0,0,-2.1519,-2.1469,-2.1461,-2.1441,-2.1402,-2.1375,-2.1338,-2.13,-2.1279,-2.1249,-2.1216,-2.1166,-2.1168,-2.1145,-2.1134,-2.1108,-2.1068,-2.1114,-2.1113,-2.1104,-2.1007,-2.1002,-2.0994,-2.1065,-2.1064,-2.1063,-2.1009,0,-2.1475,-2.1411,-2.1397,-2.1341,-2.1308,-2.13,-2.1268,-2.124,-2.1222,-2.119,-2.117,-2.1134,-2.1142,-2.1127,-2.1101,-2.1078,-2.1047,-2.1082,-2.1031,-2.103,-2.1038,-2.0985,-2.0981,-2.0931,-2.1002,-2.1001,-2.1,0,-2.1417,-2.1385,-2.1326,-2.129,-2.1275,-2.1247,-2.1208,-2.1179,-2.1146,-2.1134,-2.1108,-2.1099,-2.1058,-2.1074,-2.1015,-2.1039,-2.1017,-2.1003,-2.1,-2.0993,-2.1011,-2.0974,-2.0915,-2.0907,-2.0989,-2.099,-2.099,0,-2.1391,-2.1334,-2.1291,-2.1274,-2.1232,-2.1211,-2.1192,-2.116,-2.1137,-2.1103,-2.1087,-2.1049,-2.1027,-2.0996,-2.0976,-2.099,-2.0918,-2.0933,-2.0905,-2.0905,-2.0888,-2.0889,-2.0823,-2.0879,-2.0879,-2.0879,-2.0879,0,-2.1343,-2.1306,-2.1278,-2.1251,-2.1209,-2.1192,-2.115,-2.1131,-2.1102,-2.1069,-2.1061,-2.103,-2.1006,-2.0971,-2.0956,-2.0907,-2.0899,-2.0886,-2.0882,-2.0885,-2.0887,-2.0869,-2.0871,-2.0877,-2.0878,-2.0878,-2.0878,0,-2.1306,-2.1287,-2.1238,-2.1202,-2.1192,-2.1162,-2.1129,-2.1101,-2.1084,-2.1042,-2.1031,-2.1002,-2.0961,-2.0938,-2.0886,-2.0875,-2.082,-2.082,-2.0832,-2.0829,-2.0801,-2.0803,-2.072,-2.0707,-2.0774,-2.0773,-2.0773,0,-2.1276,-2.1247,-2.1208,-2.1186,-2.1166,-2.1131,-2.1107,-2.1089,-2.1064,-2.1023,-2.0999,-2.0957,-2.0922,-2.0856,-2.0829,-2.0788,-2.0784,-2.0758,-2.0778,-2.0781,-2.078,-2.0781,-2.0776,-2.0753,-2.0753,-2.0752,-2.0752,0,-2.1223,-2.1214,-2.1181,-2.1143,-2.1115,-2.1084,-2.1054,-2.1036,-2.1012,-2.0984,-2.0941,-2.0915,-2.0861,-2.0818,-2.0775,-2.0753,-2.0747,-2.0746,-2.0737,-2.0739,-2.0746,-2.0738,-2.0819,-2.0747,-2.0748,-2.0748,-2.0748,-2.0748,-2.1186,-2.116,-2.1127,-2.1089,-2.1064,-2.1036,-2.1007,-2.0985,-2.095,-2.0906,-2.0897,-2.0851,-2.0816,-2.0757,-2.0734,-2.0696,-2.0701,-2.0689,-2.0685,-2.0682,-2.0679,-2.0754,-2.0689,-2.0689,-2.0689,-2.0689,-2.0689,0,-2.113,-2.1109,-2.1075,-2.1032,-2.1001,-2.1001,-2.0966,-2.094,-2.09,-2.0869,-2.0835,-2.0784,-2.0742,-2.0712,-2.0669,-2.0644,-2.064,-2.0633,-2.0633,-2.0628,-2.0678,-2.0689,-2.0637,-2.0637,-2.0637,-2.0637,-2.0637,-2.0637,-2.1098,-2.1051,-2.1038,-2.0979,-2.0957,-2.0913,-2.0893,-2.0865,-2.084,-2.0784,-2.075,-2.0731,-2.0698,-2.0652,-2.0613,-2.0605,-2.0588,-2.058,-2.0572,-2.0619,-2.0625,-2.063,-2.064,-2.0578,-2.0578,-2.0523,-2.0523,-2.0523]}]]